◎2005 JE46の軌道と予報位置です    [From JSGA Web News]



JSGA Web News No. 32                                              2005 Nov. 30



アポロ型特異小惑星 2005 JE46の接近

 2005年5月10日にLINEARサーベイで発見された19等級の小惑星 2005 JE46は,1984年

にサイデング・スプリングの1.2-m UKシュミットで撮影されていた捜索プレート上に,

その発見前の観測が見つかり,連結軌道が計算された.その結果,2005年11月上旬に,

地球に0.10 AU以内に接近し,13等級まで明るくなることが公表された(MPEC Q24, J48

(2005)).

  この小惑星の接近まで約半年間の期間があり,しかも,予報どおり,11月には12等級

まで明るくなったために,多くの追跡観測が報告された.我が国でも,雄踏の和久田俊

一氏(S. Wakuda, Yuto)によって,精力的にこの小惑星が追跡され,氏だけで 160個の

観測が報告された.氏の観測は,実に全世界の観測の 36%を占める.氏以外にも,BSGC

のスタッフである秦野の浅見敦夫氏(A. Asami, Hadano)から8個,美星からも6個の

観測が報告された.我が国の観測は,全世界の 39%を占める.最近の小惑星の観測では,

これは,非常にめずらしいこと.

  次の軌道は,2005年5月10日から11月30日までに行なわれた 436個の観測から決定さ

れたもの.加重平均残差は0".39.小惑星は,2005年11月8.0日UTに地球まで0.0360 AU(

約540万Km),11月7.8日UTに月に0.0375 AUまで接近し,その頃,1日に12゚近い速度で

空を移動した.その光度パラメータHから小惑星の直径は約1-Kmと推定される.

               。

       Mo=  58.6118                Epoch = 2006 Mar.  6.0 TT

       ω = 114.4896                   e =   0.552453          H = 17.8

       Ω = 238.6039    (2000.0)       a =   1.903719 AU       G =  0.15

       i =   8.2602                   n゚=   0.3752319

       q =   0.852004 AU              P =   2.63 年



◎接近の様子を知るために,以下に地心からの位置予報を掲げる.小惑星は,まだ,

 しばらく,観測できる.



2005/2006    α  (2000) δ      △      r     日々運動   Elong.  Phase   V  

  0h TT     h  m       。  ,        AU      AU    ,  PA 。     。      。      等

Nov.  1   15 40.34  +30 45.7    0.063   0.952 257.0/338    48.6  128.5   17.3

      2   15 32.60  +34 43.4    0.057   0.958 313.5/337    51.7  125.6   16.8

      3   15 21.99  +39 30.2    0.052   0.964 384.4/335    55.7  121.8   16.3

      4   15 06.74  +45 15.5    0.047   0.970 469.7/333    61.0  116.6   15.7

      5   14 43.25  +52 04.0    0.042   0.976 563.7/328    67.7  110.0   15.1

      6   14 03.81  +59 41.1    0.039   0.983 650.7/320    76.1  101.7   14.4

      7   12 51.43  +66 59.0    0.037   0.989 705.5/304    86.0   91.9   13.9

      8   10 46.17  +70 55.9    0.036   0.996 706.2/274    96.9   81.1   13.4

      9   08 31.56  +68 27.8    0.037   1.002 652.5/243   107.9   70.1   13.1

     10   07 08.43  +61 50.0    0.039   1.009 565.8/224   118.1   59.9   12.9

     11   06 23.50  +54 27.9    0.042   1.016 471.4/214   127.0   51.1   12.9

     12   05 57.24  +47 46.1    0.047   1.023 385.4/209   134.4   43.8   12.9

     13   05 40.38  +42 04.6    0.052   1.030 313.8/206   140.4   37.7   13.0

     14   05 28.71  +37 21.1    0.058   1.037 256.6/205   145.4   32.8   13.1

     15   05 20.17  +33 26.7    0.064   1.044 211.6/204   149.4   28.8   13.2

     16   05 13.64  +30 12.2    0.070   1.052 176.2/203   152.8   25.4   13.3

     17   05 08.47  +27 29.6    0.077   1.059 148.3/203   155.7   22.6   13.4

     18   05 04.26  +25 12.5    0.084   1.066 126.1/203   158.1   20.2   13.6

     19   05 00.76  +23 15.9    0.091   1.074 108.2/203   160.3   18.1   13.7

     20   04 57.79  +21 35.8    0.098   1.081  93.6/203   162.1   16.3   13.8

     21   04 55.23  +20 09.3    0.105   1.089  81.6/203   163.7   14.7   13.9

     22   04 52.99  +18 54.1    0.112   1.097  71.7/203   165.1   13.4   14.0

     23   04 51.02  +17 48.1    0.120   1.104  63.3/204   166.4   12.2   14.1

     24   04 49.26  +16 50.1    0.128   1.112  56.2/204   167.4   11.1   14.3

     25   04 47.67  +15 58.7    0.135   1.120  50.1/204   168.3   10.3   14.4

     26   04 46.24  +15 13.1    0.143   1.128  44.8/205   169.1    9.5   14.5

     27   04 44.94  +14 32.4    0.151   1.136  40.2/205   169.6    9.0   14.6

     28   04 43.76  +13 56.1    0.159   1.144  36.2/206   170.0    8.6   14.7

     29   04 42.67  +13 23.5    0.167   1.151  32.7/206   170.3    8.3   14.8

     30   04 41.68  +12 54.2    0.175   1.159  29.5/207   170.3    8.2   14.9

Dec.  1   04 40.76  +12 27.9    0.184   1.167  26.7/208   170.2    8.2   15.0

      2   04 39.92  +12 04.2    0.192   1.175  24.1/208   170.0    8.4   15.1

      3   04 39.15  +11 42.9    0.200   1.184  21.8/208   169.6    8.6   15.3

      4   04 38.44  +11 23.7    0.209   1.192  19.7/209   169.2    8.9   15.4

      5   04 37.80  +11 06.5    0.218   1.200  17.8/209   168.6    9.3   15.5

      6   04 37.21  +10 50.9    0.227   1.208  16.0/210   168.0    9.8   15.6

      7   04 36.67  +10 37.0    0.235   1.216  14.4/210   167.3   10.3   15.7

      8   04 36.18  +10 24.5    0.244   1.224  12.9/210   166.6   10.8   15.9

      9   04 35.75  +10 13.3    0.254   1.232  11.5/210   165.8   11.3   16.0

     10   04 35.36  +10 03.3    0.263   1.241  10.2/210   165.0   11.8   16.1

     11   04 35.02  +09 54.5    0.272   1.249   9.0/210   164.2   12.4   16.2

     12   04 34.71  +09 46.6    0.282   1.257   7.9/209   163.4   12.9   16.3

     13   04 34.46  +09 39.7    0.291   1.265   6.8/208   162.6   13.5   16.4

     14   04 34.24  +09 33.7    0.301   1.273   5.9/207   161.7   14.0   16.5

     15   04 34.06  +09 28.5    0.311   1.282   4.9/205   160.9   14.6   16.6

     16   04 33.91  +09 24.0    0.320   1.290   4.1/202   160.0   15.1   16.7

     17   04 33.81  +09 20.2    0.330   1.298   3.3/198   159.1   15.7   16.8

     18   04 33.74  +09 17.1    0.341   1.306   2.6/191   158.3   16.2   16.9

     19   04 33.71  +09 14.6    0.351   1.315   2.0/180   157.4   16.7   17.0

     20   04 33.71  +09 12.6    0.361   1.323   1.5/161   156.5   17.2   17.1

     21   04 33.74  +09 11.2    0.372   1.331   1.4/133   155.7   17.7   17.2

     22   04 33.81  +09 10.3    0.382   1.340   1.5/108   154.8   18.2   17.3

     23   04 33.90  +09 09.8    0.393   1.348   1.9/ 91   153.9   18.7   17.4

     24   04 34.04  +09 09.8    0.404   1.356   2.4/ 81   153.1   19.2   17.5

     25   04 34.20  +09 10.2    0.415   1.364   3.0/ 75   152.2   19.6   17.6

     26   04 34.39  +09 10.9    0.426   1.373   3.5/ 72   151.4   20.1   17.6

     27   04 34.62  +09 12.0    0.437   1.381   4.1/ 69   150.5   20.5   17.7

     28   04 34.87  +09 13.5    0.448   1.389   4.6/ 67   149.7   21.0   17.8

     29   04 35.16  +09 15.2    0.460   1.397   5.1/ 66   148.8   21.4   17.9

     30   04 35.47  +09 17.3    0.471   1.405   5.6/ 65   148.0   21.8   18.0

     31   04 35.82  +09 19.6    0.483   1.414   6.1/ 65   147.1   22.2   18.0

Jan.  1   04 36.20  +09 22.2    0.495   1.422   6.6/ 65   146.3   22.6   18.1



◎観測の残差は,次のとおり.

 

2005 JE46

Epoch 2006 Mar. 6.0 TT = JDT 2453800.5                  Nakano

M  58.61180              (2000.0)            P               Q

n   0.37523188     Peri.  114.48960     +0.98468513     +0.12392000

a   1.9037192      Node   238.60392     -0.15782105     +0.93245865

e   0.5524531      Incl.    8.26020     +0.07407910     +0.33935924

P   2.63           H   17.8           G   0.15           U   0

Residuals in seconds of arc 

840622 413  0.6-  1.4+    051111 A53  0.1-  0.2-    051121 703  0.0   0.3-  

840622 413  0.8+  0.9-    051111 A53  0.2+  0.0     051121 703  0.3-  0.0   

840717 413  0.0   1.1+    051111 A53  0.1+  0.2+    051121 703  0.0   0.3-  

840717 413  1.2+  2.5-    051111 A53  0.2-  0.1-    051121 703  0.0   0.4-  

050510 704  0.9-  0.5+    051111 A53  0.1-  0.2-    051121 379  0.2-  0.4+  

050510 704  0.3+  0.3-    051111 A53  0.2-  0.3-    051121 379  0.1+  0.3+  

050510 704  0.1-  0.8+    051111 A53  0.1+  0.1-    051121 379  0.1+  0.1-  

050510 704  0.5-  0.1-    051111 A53  0.2-  0.1-    051121 379  0.1+  0.2+  

050510 704  0.2-  0.3-    051111 A53  0.2+  0.5-    051121 379  0.0   0.2+  

050511 J95  0.2+  1.3-    051111 A53  0.1-  0.0     051121 379  0.3+  0.1-  

050511 J95  1.0-  0.6-    051111 A53  0.1-  0.3-    051121 379  0.0   0.1-  

050511 854  0.0   0.2+    051111 A53  0.1+  0.3-    051121 379  0.0   0.1-  

050511 854  0.4-  0.3+    051111 A53  0.0   0.0     051121 379  0.1+  0.2+  

050511 854  0.4+  0.3-    051111 A53  0.1-  0.2-    051121 379  0.0   0.3+  

050511 673  0.1-  0.2-    051111 560  0.1+  0.6-    051121 379  0.2+  0.4+  

050511 673  0.8-  0.0     051112 560  0.0   0.6-    051121 379  0.1+  0.2+  

050511 673  1.1-  0.0     051112 560  0.2+  0.5-    051122 H45  0.6-  0.2-  

050511 673  0.2+  0.4-    051112 560  0.2+  0.6-    051122 H45  0.3-  0.1-  

050511 F65  0.1-  0.2+    051112 704  0.3-  0.7-    051122 H45  0.2-  0.4-  

050511 F65  0.0   0.2+    051112 704  0.2-  0.9-    051122 H45  0.7-  0.4-  

050511 F65  0.2-  0.4+    051112 704  0.4-  0.3-    051122 H45  1.3-  0.7-  

050512 F65  0.1-  0.2-    051112 704  1.0-  1.5-    051122 H45  0.4-  0.4-  

050512 F65  0.2-  0.1-    051112 704  0.3-  0.2-    051122 H45  0.3-  0.4-  

050512 F65  0.3-  0.1-    051112 379  0.1+  0.1-    051122 379  0.2+  0.0   

050513 J95  0.8+  0.6-    051112 379  0.1+  0.1+    051122 379  0.1+  0.2+  

050513 J95  0.3-  1.8-    051112 379  0.0   0.2+    051122 379  0.1-  0.1+  

050513 F65  0.2-  0.1+    051112 379  0.0   0.3+    051122 379  0.1+  0.2+  

050513 F65  0.3-  0.1+    051112 379  0.1-  0.2+    051122 379  0.1-  0.2+  

050513 F65  0.2-  0.2-    051112 379  0.3+  0.3+    051122 379  0.0   0.3+  

050513 F65  0.2-  0.1-    051112 379  0.0   0.0     051122 379  0.2+  0.1-  

050514 952  0.1+  0.0     051112 379  0.1+  0.1-    051122 379  0.0   0.1+  

050514 952  0.2-  0.3+    051112 379  0.0   0.0     051122 379  0.2+  0.1-  

050514 952  0.1-  0.0     051112 379  0.1-  0.1+    051122 379  0.2-  0.1+  

050514 952  0.1-  0.0     051112 379  0.1+  0.1+    051122 379  0.1+  0.1-  

050514 176  0.0   0.9-    051112 379  0.0   0.2+    051122 185  0.4-  0.3-  

050514 176  0.1-  0.2-    051112 379  0.1+  0.2+    051122 185  0.4-  0.1-  

050515 176  0.4-  1.3+    051112 379  0.0   0.1+    051122 185  0.2-  0.5-  

050515 176 (0.5-  2.0+)   051115 355  0.1-  0.2-    051122 185  0.3+  0.2+  

050516 649  0.3-  0.2-    051115 355  0.3-  0.4-    051122 185  0.2-  0.0   

050516 649  0.2-  0.4+    051115 355  0.1-  0.4-    051122 185  0.4-  0.5-  

050516 649  0.4-  0.1-    051115 355  0.3-  0.0     051122 185  0.1-  0.3+  

